FW8396 Weather Reports


Display with metric or nautical units.
time (UTC)temp
F
wind
direction
speed
MPH
gust
MPH
rain 1hr
in
rain 24hr
in
rain mn
in
humidity
%
barometer
mb
20260506151532 80 0 1.0 4.0 0.00 0.00 0.00 85 1011.8
20260506150029 80 107 2.0 6.0 0.00 0.00 0.00 85 1011.7
20260506144527 80 167 2.0 7.0 0.00 0.00 0.00 86 1011.5
20260506143033 79 100 1.0 11.0 0.00 0.00 0.00 86 1011.3
20260506141528 79 160 2.0 8.0 0.00 0.00 0.00 87 1011.3
20260506140030 79 130 1.0 4.0 0.00 0.00 0.00 88 1011.5
20260506134530 78 116 2.0 9.0 0.00 0.00 0.00 88 1011.5
20260506133030 78 102 1.0 5.0 0.00 0.00 0.00 89 1011.8
20260506131543 77 147 1.0 4.0 0.00 0.00 0.00 90 1011.7
20260506130038 77 158 0.0 4.0 0.00 0.00 0.00 90 1011.8
20260506124531 77 0 1.0 4.0 0.00 0.00 0.00 90 1011.7
20260506123031 77 148 1.0 4.0 0.00 0.00 0.00 90 1011.6
20260506121530 76 217 1.0 6.0 0.00 0.00 0.00 91 1011.4
20260506120028 76 145 0.0 6.0 0.00 0.00 0.00 91 1011.2
20260506114528 76 144 1.0 5.0 0.00 0.00 0.00 91 1011.0
20260506113030 76 138 1.0 9.0 0.00 0.00 0.00 91 1010.8
20260506111531 76 115 0.0 7.0 0.00 0.00 0.00 91 1010.6
20260506110028 76 134 2.0 8.0 0.00 0.00 0.00 91 1010.5
20260506104530 76 79 2.0 7.0 0.00 0.00 0.00 91 1010.5
20260506103037 76 0 1.0 7.0 0.00 0.00 0.00 90 1010.3
20260506101528 76 140 2.0 7.0 0.00 0.00 0.00 90 1010.3
20260506100035 76 119 1.0 7.0 0.00 0.00 0.00 90 1010.1
20260506094535 76 159 1.0 7.0 0.00 0.00 0.00 90 1010.1
20260506093035 76 153 1.0 5.0 0.00 0.00 0.00 90 1010.2
20260506091531 76 173 1.0 6.0 0.00 0.00 0.00 89 1010.3
20260506090028 77 107 3.0 9.0 0.00 0.00 0.00 89 1010.5
20260506084530 77 0 1.0 8.0 0.00 0.00 0.00 88 1010.7
20260506083030 77 139 1.0 7.0 0.00 0.00 0.00 88 1010.7
20260506081533 77 0 1.0 5.0 0.00 0.00 0.00 88 1010.8
20260506073028 77 92 2.0 8.0 0.00 0.00 0.00 87 1011.0
20260506071528 77 0 1.0 7.0 0.00 0.00 0.00 87 1011.1
20260506061528 78 0 1.0 7.0 0.00 0.00 0.00 87 1011.6
20260506044532 77 160 2.0 6.0 0.00 0.00 0.00 88 1011.5
20260506043029 77 166 1.0 9.0 0.00 0.00 0.00 88 1011.4
20260506041528 77 124 1.0 7.0 0.00 0.00 0.00 87 1011.4
20260506040028 78 215 1.0 7.0 0.00 0.00 0.00 87 1011.5
20260506034528 78 137 1.0 11.0 0.00 0.00 0.00 86 1011.0
20260506033029 78 178 2.0 15.0 0.00 0.00 0.00 85 1011.0
20260506031530 78 0 2.0 9.0 0.00 0.00 0.00 85 1010.9
20260506030035 78 166 2.0 13.0 0.00 0.00 0.00 85 1010.8
20260506024541 78 143 4.0 9.0 0.00 0.00 0.00 85 1010.6
20260506023030 79 94 1.0 13.0 0.00 0.00 0.00 84 1010.3
20260506021530 79 151 2.0 7.0 0.00 0.00 0.00 84 1010.1
20260506020030 79 130 3.0 8.0 0.00 0.00 0.00 84 1010.1
20260506014535 79 151 3.0 10.0 0.00 0.00 0.00 83 1009.8
20260506013028 80 145 5.0 14.0 0.00 0.00 0.00 83 1009.4
20260506011531 80 23 2.0 8.0 0.00 0.00 0.00 82 1009.2
20260506010033 80 123 2.0 7.0 0.00 0.00 0.00 81 1009.2
20260506004530 80 165 2.0 9.0 0.00 0.00 0.00 80 1009.1
20260506003033 81 121 3.0 9.0 0.00 0.00 0.00 79 1008.9
20260506001532 81 123 3.0 12.0 0.00 0.00 0.00 79 1008.9
20260506000028 81 184 2.0 15.0 0.00 0.00 0.00 77 1008.7
20260505234534 82 200 7.0 14.0 0.00 0.00 0.00 77 1008.9
20260505233027 82 148 5.0 14.0 0.00 0.00 0.00 77 1008.9
20260505231529 82 189 3.0 16.0 0.00 0.00 0.00 78 1008.9
20260505230046 82 147 2.0 12.0 0.00 0.00 0.00 77 1008.9
20260505224529 82 142 3.0 13.0 0.00 0.00 0.00 77 1008.8
20260505223031 83 160 3.0 11.0 0.00 0.00 0.00 77 1008.7
20260505221529 83 174 3.0 11.0 0.00 0.00 0.00 76 1008.7
20260505220033 83 171 3.0 9.0 0.00 0.00 0.00 76 1009.0
20260505214529 84 155 2.0 9.0 0.00 0.00 0.00 76 1009.2
20260505213028 84 99 3.0 11.0 0.00 0.00 0.00 75 1009.1
20260505211530 84 132 2.0 12.0 0.00 0.00 0.00 76 1009.2
20260505210030 84 173 5.0 14.0 0.00 0.00 0.00 75 1009.3
20260505204527 84 176 5.0 18.0 0.00 0.00 0.00 75 1009.5
20260505203030 84 174 4.0 12.0 0.00 0.00 0.00 76 1009.7
20260505201529 84 140 3.0 11.0 0.00 0.00 0.00 76 1010.0
20260505200029 84 169 3.0 12.0 0.00 0.00 0.00 75 1010.2
20260505194529 84 261 3.0 9.0 0.00 0.00 0.00 74 1010.2
20260505193031 84 142 3.0 10.0 0.00 0.00 0.00 76 1010.3
20260505191529 83 164 3.0 11.0 0.00 0.00 0.00 77 1010.4
20260505190029 82 223 3.0 12.0 0.00 0.00 0.00 78 1010.8
20260505184530 82 203 6.0 11.0 0.00 0.00 0.00 78 1010.9
20260505183035 82 147 2.0 12.0 0.00 0.00 0.00 78 1010.9
20260505181529 82 179 2.0 11.0 0.00 0.00 0.00 79 1011.0
20260505180043 82 179 2.0 7.0 0.00 0.00 0.00 80 1011.3
20260505174532 81 184 2.0 10.0 0.00 0.00 0.00 80 1011.3
20260505173029 81 201 3.0 13.0 0.00 0.00 0.00 80 1011.5
20260505171531 80 144 2.0 11.0 0.00 0.00 0.00 80 1011.4
20260505170028 80 219 2.0 9.0 0.00 0.00 0.00 81 1011.7
20260505164528 80 180 3.0 10.0 0.00 0.00 0.00 81 1011.7
20260505163029 79 172 3.0 10.0 0.00 0.00 0.00 81 1011.6
20260505161530 79 171 3.0 15.0 0.00 0.00 0.00 81 1011.5
20260505153028 79 0 3.0 16.0 0.00 0.00 0.00 82 1011.4